• Em Portugal
  • Lista de países
  • Para 7 dias
  • Temperatura da água
  • Mapas de satélite
  • Mapa do tempo
  • Widgets de tempo
  • user-avatar
    Iniciar Sessão

    Previsão horária em São Luís

    Hoje, 20 Setembro, Quarta-feira

    Tempo Temperatura Precipitação Vento Pressão Humidade
    00:00 +28°C° 0 mm 4 m/s 759 mmHg 82%
    01:00 +28°C° 0 mm 4 m/s 759 mmHg 81%
    02:00 +28°C° 0 mm 4 m/s 759 mmHg 81%
    03:00 +28°C° 0 mm 4 m/s 758 mmHg 80%
    04:00 +28°C° 0 mm 4 m/s 759 mmHg 81%
    05:00 +28°C° 0 mm 4 m/s 759 mmHg 82%
    06:00 +27°C° 0 mm 4 m/s 759 mmHg 82%
    07:00 +29°C° 0,3 mm 4 m/s 759 mmHg 78%
    08:00 +30°C° 0,3 mm 4 m/s 760 mmHg 73%
    09:00 +32°C° 0,3 mm 4 m/s 760 mmHg 69%
    10:00 +34°C° 0,2 mm 4 m/s 760 mmHg 61%
    11:00 +35°C° 0,2 mm 4 m/s 759 mmHg 53%
    12:00 +37°C° 0,2 mm 3 m/s 759 mmHg 45%
    13:00 +36°C° 0 mm 3 m/s 758 mmHg 47%
    14:00 +36°C° 0 mm 4 m/s 757 mmHg 49%
    15:00 +35°C° 0 mm 4 m/s 757 mmHg 51%
    16:00 +33°C° 0 mm 4 m/s 757 mmHg 57%
    17:00 +32°C° 0 mm 4 m/s 757 mmHg 63%
    18:00 +29°C° 0 mm 4 m/s 757 mmHg 70%
    19:00 +29°C° 0 mm 4 m/s 758 mmHg 72%
    20:00 +29°C° 0 mm 4 m/s 758 mmHg 74%
    21:00 +28°C° 0 mm 4 m/s 759 mmHg 77%
    22:00 +28°C° 0 mm 4 m/s 759 mmHg 77%
    23:00 +28°C° 0 mm 4 m/s 759 mmHg 77%

    Amanhã, 21 Setembro, Quinta-feira

    Tempo Temperatura Precipitação Vento Pressão Humidade
    00:00 +28°C° 0 mm 4 m/s 759 mmHg 78%
    01:00 +28°C° 0 mm 4 m/s 759 mmHg 77%
    02:00 +28°C° 0 mm 4 m/s 758 mmHg 77%
    03:00 +28°C° 0 mm 4 m/s 758 mmHg 77%
    04:00 +28°C° 0,1 mm 5 m/s 758 mmHg 78%
    05:00 +28°C° 0,1 mm 5 m/s 758 mmHg 79%
    06:00 +28°C° 0,1 mm 5 m/s 759 mmHg 79%
    07:00 +29°C° 0,2 mm 5 m/s 759 mmHg 74%
    08:00 +30°C° 0,2 mm 5 m/s 760 mmHg 69%
    09:00 +32°C° 0,2 mm 5 m/s 760 mmHg 64%
    10:00 +34°C° 0,1 mm 5 m/s 760 mmHg 58%
    11:00 +35°C° 0,1 mm 4 m/s 759 mmHg 52%
    12:00 +36°C° 0,1 mm 4 m/s 759 mmHg 46%
    13:00 +36°C° 0 mm 4 m/s 758 mmHg 48%
    14:00 +35°C° 0 mm 4 m/s 758 mmHg 49%
    15:00 +35°C° 0 mm 4 m/s 757 mmHg 51%
    16:00 +33°C° 0 mm 4 m/s 757 mmHg 56%
    17:00 +32°C° 0 mm 4 m/s 757 mmHg 62%
    18:00 +29°C° 0 mm 5 m/s 757 mmHg 68%
    19:00 +29°C° 0 mm 5 m/s 758 mmHg 69%
    20:00 +29°C° 0 mm 5 m/s 759 mmHg 70%
    21:00 +29°C° 0 mm 5 m/s 759 mmHg 71%
    22:00 +29°C° 0 mm 5 m/s 759 mmHg 73%
    23:00 +29°C° 0 mm 5 m/s 759 mmHg 75%

    Depois de amanhã, 22 Setembro, Sexta-feira

    Tempo Temperatura Precipitação Vento Pressão Humidade
    00:00 +29°C° 0 mm 5 m/s 759 mmHg 77%
    01:00 +28°C° 0 mm 5 m/s 759 mmHg 77%
    02:00 +28°C° 0 mm 5 m/s 758 mmHg 78%
    03:00 +28°C° 0 mm 5 m/s 758 mmHg 78%
    04:00 +28°C° 0 mm 5 m/s 758 mmHg 79%
    05:00 +28°C° 0 mm 5 m/s 758 mmHg 80%
    06:00 +28°C° 0 mm 5 m/s 759 mmHg 81%
    07:00 +29°C° 0,1 mm 6 m/s 759 mmHg 75%
    08:00 +30°C° 0,1 mm 6 m/s 760 mmHg 69%
    09:00 +32°C° 0,1 mm 6 m/s 760 mmHg 64%
    10:00 +34°C° 0 mm 6 m/s 760 mmHg 58%
    11:00 +35°C° 0 mm 5 m/s 759 mmHg 53%
    12:00 +36°C° 0 mm 5 m/s 759 mmHg 47%
    13:00 +36°C° 0 mm 5 m/s 758 mmHg 49%
    14:00 +35°C° 0 mm 5 m/s 757 mmHg 52%
    15:00 +34°C° 0 mm 6 m/s 757 mmHg 54%
    16:00 +33°C° 0 mm 5 m/s 757 mmHg 59%
    17:00 +32°C° 0 mm 5 m/s 757 mmHg 63%
    18:00 +30°C° 0 mm 5 m/s 757 mmHg 68%
    19:00 +30°C° 0 mm 5 m/s 758 mmHg 70%
    20:00 +29°C° 0 mm 5 m/s 758 mmHg 73%
    21:00 +29°C° 0 mm 5 m/s 759 mmHg 75%
    22:00 +29°C° 0 mm 5 m/s 759 mmHg 76%
    23:00 +29°C° 0 mm 5 m/s 759 mmHg 77%

    23 Setembro, Sábado

    Tempo Temperatura Precipitação Vento Pressão Humidade
    00:00 +28°C° 0 mm 6 m/s 759 mmHg 78%
    01:00 +28°C° 0 mm 5 m/s 758 mmHg 78%
    02:00 +28°C° 0 mm 5 m/s 758 mmHg 77%
    03:00 +28°C° 0 mm 5 m/s 757 mmHg 77%
    04:00 +28°C° 0 mm 5 m/s 758 mmHg 76%
    05:00 +28°C° 0 mm 5 m/s 758 mmHg 76%
    06:00 +28°C° 0 mm 5 m/s 758 mmHg 75%
    07:00 +29°C° 0,1 mm 5 m/s 759 mmHg 74%
    08:00 +29°C° 0,1 mm 5 m/s 760 mmHg 72%
    09:00 +30°C° 0,1 mm 5 m/s 760 mmHg 70%
    10:00 +32°C° 0,2 mm 5 m/s 760 mmHg 64%
    11:00 +34°C° 0,2 mm 5 m/s 759 mmHg 59%
    12:00 +35°C° 0,2 mm 5 m/s 759 mmHg 54%
    13:00 +35°C° 0 mm 5 m/s 758 mmHg 54%
    14:00 +35°C° 0 mm 5 m/s 757 mmHg 53%
    15:00 +34°C° 0 mm 5 m/s 757 mmHg 53%
    16:00 +33°C° 0 mm 5 m/s 757 mmHg 58%
    17:00 +32°C° 0 mm 4 m/s 757 mmHg 63%
    18:00 +30°C° 0 mm 4 m/s 757 mmHg 69%
    19:00 +29°C° 0 mm 4 m/s 758 mmHg 71%
    20:00 +29°C° 0 mm 4 m/s 758 mmHg 74%
    21:00 +28°C° 0 mm 4 m/s 759 mmHg 77%
    22:00 +28°C° 0 mm 4 m/s 758 mmHg 78%
    23:00 +28°C° 0 mm 4 m/s 758 mmHg 79%

    24 Setembro, Domingo

    Tempo Temperatura Precipitação Vento Pressão Humidade
    00:00 +28°C° 0 mm 4 m/s 758 mmHg 81%
    01:00 +27°C° 0 mm 4 m/s 758 mmHg 81%
    02:00 +27°C° 0 mm 3 m/s 757 mmHg 82%
    03:00 +27°C° 0 mm 3 m/s 757 mmHg 83%
    04:00 +27°C° 0 mm 3 m/s 757 mmHg 83%
    05:00 +27°C° 0 mm 4 m/s 758 mmHg 83%
    06:00 +27°C° 0 mm 4 m/s 758 mmHg 83%
    07:00 +28°C° 0 mm 4 m/s 758 mmHg 78%
    08:00 +30°C° 0 mm 4 m/s 759 mmHg 73%
    09:00 +32°C° 0 mm 5 m/s 759 mmHg 68%
    10:00 +33°C° 0 mm 4 m/s 759 mmHg 60%
    11:00 +35°C° 0 mm 4 m/s 758 mmHg 53%
    12:00 +37°C° 0 mm 4 m/s 757 mmHg 46%
    13:00 +36°C° 0 mm 4 m/s 757 mmHg 47%
    14:00 +36°C° 0 mm 4 m/s 756 mmHg 49%
    15:00 +35°C° 0 mm 4 m/s 755 mmHg 50%
    16:00 +34°C° 0 mm 4 m/s 756 mmHg 57%
    17:00 +32°C° 0 mm 4 m/s 756 mmHg 63%
    18:00 +30°C° 0 mm 4 m/s 756 mmHg 70%
    19:00 +29°C° 0 mm 4 m/s 757 mmHg 73%
    20:00 +29°C° 0 mm 4 m/s 757 mmHg 75%
    21:00 +28°C° 0 mm 4 m/s 758 mmHg 78%
    22:00 +28°C° 0 mm 4 m/s 758 mmHg 80%
    23:00 +28°C° 0 mm 4 m/s 757 mmHg 82%

    25 Setembro, Segunda-feira

    Tempo Temperatura Precipitação Vento Pressão Humidade
    00:00 +28°C° 0 mm 4 m/s 757 mmHg 83%
    01:00 +28°C° 0 mm 4 m/s 757 mmHg 83%
    02:00 +28°C° 0 mm 5 m/s 757 mmHg 83%
    03:00 +28°C° 0 mm 5 m/s 757 mmHg 83%
    04:00 +28°C° 0 mm 5 m/s 757 mmHg 82%
    05:00 +28°C° 0 mm 5 m/s 758 mmHg 82%
    06:00 +28°C° 0 mm 5 m/s 758 mmHg 81%
    07:00 +29°C° 0,1 mm 5 m/s 759 mmHg 78%
    08:00 +29°C° 0,1 mm 5 m/s 759 mmHg 75%
    09:00 +30°C° 0,1 mm 5 m/s 759 mmHg 72%
    10:00 +33°C° 0,1 mm 4 m/s 759 mmHg 64%
    11:00 +35°C° 0,1 mm 4 m/s 758 mmHg 55%
    12:00 +37°C° 0,1 mm 4 m/s 758 mmHg 47%
    13:00 +37°C° 0 mm 4 m/s 757 mmHg 46%
    14:00 +37°C° 0 mm 4 m/s 756 mmHg 46%
    15:00 +37°C° 0 mm 4 m/s 756 mmHg 45%
    16:00 +35°C° 0 mm 4 m/s 756 mmHg 54%
    17:00 +33°C° 0 mm 4 m/s 756 mmHg 62%
    18:00 +30°C° 0 mm 4 m/s 756 mmHg 70%
    19:00 +29°C° 0 mm 4 m/s 756 mmHg 73%
    20:00 +29°C° 0 mm 4 m/s 757 mmHg 75%
    21:00 +28°C° 0 mm 4 m/s 757 mmHg 77%
    22:00 +28°C° 0 mm 4 m/s 757 mmHg 78%
    23:00 +28°C° 0 mm 4 m/s 757 mmHg 79%
    Mostrar mais